This demonstration page uses our WeatherBlox Daily Observations layout. Learn more.

Left ArrowRight Arrow

39.08367, -84.50855

Hourly Observations for September 26, 2022

Temp ( °F °C ) Dew Point ( °F °C ) Humidity (%) Winds ( mph kmh ) Pressure ( in mb ) Visibility ( mi km ) Precip ( " mm )
12:53 am 00:53 Clear 59 15 51 10.6 75 75 SW 5 7 29.83 1010 10 16 0.00 0.00
1:53 am 01:53 Clear 58 14.4 51 10.6 78 78 S 3 6 29.82 1010 10 16 0.00 0.00
2:53 am 02:53 Mostly Cloudy 57 13.9 52 11.1 83 83 SSE 6 9 29.80 1009 10 16 0.00 0.00
3:53 am 03:53 Cloudy 56 13.3 53 11.7 90 90 NNW 12 19 29.82 1010 10 16 0.00 0.00
4:53 am 04:53 Clear 56 13.3 52 11.1 87 87 SSW 5 7 29.79 1009 10 16 0.00 0.00
5:53 am 05:53 Mostly Cloudy 56 13.3 52 11.1 87 87 SSW 3 6 29.80 1009 10 16 0.00 0.00
6:53 am 06:53 Mostly Clear 54 12.2 51 10.6 90 90 SW 6 9 29.82 1010 10 16 0.00 0.00
7:53 am 07:53 Mostly Cloudy 55 12.8 52 11.1 89 89 WSW 6 9 29.84 1010 10 16 0.00 0.00
8:53 am 08:53 Mostly Cloudy 59 15 51 10.6 75 75 W 13 20 29.86 1011 10 16 0.00 0.00
9:53 am 09:53 Partly Cloudy 62 16.7 49 9.4 62 62 WNW 8 13 29.87 1012 10 16 0.00 0.00
10:53 am 10:53 Partly Cloudy 65 18.3 48 8.9 54 54 WNW 13 20 29.88 1012 10 16 0.00 0.00
11:53 am 11:53 Mostly Sunny 66 18.9 45 7.2 47 47 WSW 16 26 29.88 1012 10 16 0.00 0.00
12:53 pm 12:53 Mostly Cloudy 67 19.4 39 3.9 36 36 NW 13 20 29.88 1012 10 16 0.00 0.00
1:53 pm 13:53 Mostly Cloudy 68 20 40 4.4 36 36 W 12 19 29.88 1012 10 16 0.00 0.00
2:53 pm 14:53 Partly Cloudy 66 18.9 40 4.4 38 38 WNW 16 26 29.89 1012 10 16 0.00 0.00
3:53 pm 15:53 Mostly Cloudy 68 20 40 4.4 36 36 W 15 24 29.88 1012 10 16 0.00 0.00
4:53 pm 16:53 Partly Cloudy 69 20.6 40 4.4 34 34 W 15 24 29.88 1012 10 16 0.00 0.00
5:53 pm 17:53 Mostly Cloudy 66 18.9 39 3.9 37 37 W 15 24 29.89 1012 10 16 0.00 0.00
6:53 pm 18:53 Mostly Sunny 65 18.3 39 3.9 38 38 W 15 24 29.91 1013 10 16 0.00 0.00
7:53 pm 19:53 Clear 62 16.7 41 5 46 46 W 9 15 29.92 1013 10 16 0.00 0.00
8:53 pm 20:53 Mostly Clear 58 14.4 43 6.1 57 57 WSW 7 11 29.94 1014 10 16 0.00 0.00
9:53 pm 21:53 Clear 58 14.4 43 6.1 57 57 WSW 5 7 29.95 1014 10 16 0.00 0.00
10:53 pm 22:53 Mostly Clear 57 13.9 43 6.1 59 59 SW 5 7 29.96 1014 10 16 0.00 0.00
11:53 pm 23:53 Partly Cloudy 54 12.2 43 6.1 66 66 WSW 6 9 29.97 1015 10 16 0.00 0.00

Powered by AerisWeather